Torna al catalogo

IRIDIUM 33 DEB

AttivoPO
NORAD 34985·DEBRIS·🇺🇸 United States

Lanciato Sep 14, 1997 da Baikonur Cosmodrome

Loading…

Prossimi Passaggi (prossime 24 ore)

TLE

AggiornatoSource: Space-Track

Epoca: Sep 14, 2026, 09:18 UTC

1 34985U 97051NR  26257.38806697  .00000919  00000-0  26797-3 0  9993
2 34985  86.3673 299.2111 0022219  39.6243 333.4565 14.43008164911496

Traccia IRIDIUM 33 DEB in tempo reale con AllMySat

Download on the App Store